Temperature
20 19 20 19 19 19 19 19 19 19 19 19 19 19 19 19 19 19 19 19 19 18 18 18 18 18 18 18 18 18 18 18 18 18 17 17 17 17 17 17 17 17 17
20 19 20 19 19 19 19 19 19 19 19 19 19 19 19 19 19 19 19 19 18 18 18 18 18 18 18 18 18 18 18 17 17 17 17 17 17 17 17 17 17 17 17
20 19 20 19 19 19 19 19 19 19 19 19 19 19 19 19 19 19 19 19 18 18 18 18 18 18 18 18 18 18 18 17 17 17 17 16 17 17 17 17 17 17 17
20 19 19 20 19 19 19 19 19 19 19 19 19 19 19 19 19 18 19 18 18 18 18 18 18 18 18 18 18 18 18 17 17 17 17 17 16 17 17 17 17 17 17
20 19 19 20 20 19 19 19 19 19 19 19 19 19 19 19 18 18 18 18 18 18 18 18 18 18 18 18 18 18 18 17 17 17 17 16 16 17 17 17 17 17 17
19 19 19 20 20 20 19 19 19 19 19 19 19 19 19 18 18 18 18 18 18 18 18 18 18 18 18 18 18 18 18 17 17 17 16 16 16 17 17 17 17 17 17
20 19 19 20 20 20 19 19 19 19 19 19 19 19 19 18 18 18 18 18 18 18 18 18 18 18 18 18 18 18 17 17 17 17 16 16 17 17 17 17 17 17 17
20 20 19 20 20 19 19 19 19 19 19 19 19 19 18 18 18 18 18 18 18 18 18 18 18 18 18 18 18 18 18 17 17 17 17 16 17 17 17 17 17 17 17
20 20 19 19 19 19 19 19 19 19 19 19 19 18 18 18 18 18 18 18 18 18 18 18 18 18 18 18 18 18 18 17 18 17 17 16 17 17 17 17 17 17 16
20 20 19 19 18 18 19 19 19 19 19 19 18 18 18 18 18 18 18 18 18 18 18 18 18 18 18 17 17 17 17 17 18 17 17 16 17 17 17 17 17 16 17
20 19 19 19 18 18 18 18 18 19 18 18 18 18 18 17 17 17 17 18 18 18 18 18 18 18 17 17 17 17 17 18 18 18 17 17 17 17 17 17 16 16 16
19 19 19 19 18 18 18 18 18 18 18 18 17 17 18 17 17 17 18 18 18 18 18 18 18 18 17 17 17 17 17 18 18 17 17 17 17 17 17 17 16 16 16
19 19 19 18 18 18 18 18 18 18 18 18 17 17 17 17 17 17 17 17 18 17 17 17 17 17 17 17 17 17 17 18 18 18 17 17 17 17 16 16 16 16 16
19 19 19 18 18 18 18 18 18 18 18 18 18 18 18 17 17 17 17 17 17 17 17 17 17 17 17 17 17 17 17 18 18 17 17 17 17 17 16 16 16 16 16
19 19 19 18 18 19 18 18 18 18 18 18 18 18 17 17 17 17 17 17 17 17 17 17 17 17 17 17 17 17 17 17 17 17 17 17 17 17 16 16 16 16 16
20 19 19 19 19 19 19 19 18 18 18 18 18 17 18 17 17 17 17 17 17 17 17 17 17 17 17 17 17 17 17 17 17 17 17 17 17 17 17 16 16 16 16
20 20 19 19 19 19 19 19 18 18 18 18 18 18 18 17 17 17 17 17 17 17 17 17 17 17 17 17 17 17 17 17 17 17 17 16 17 17 17 17 16 16 16
20 20 19 19 19 19 19 19 18 18 18 18 18 18 18 18 18 18 17 17 17 17 17 17 17 17 17 17 17 17 17 17 17 17 17 17 16 17 17 17 16 16 16
20 20 20 19 19 19 19 19 18 18 18 18 18 18 18 18 18 18 17 17 17 17 17 17 17 17 17 17 17 17 17 17 17 17 17 17 17 16 16 17 17 16 16
20 20 20 20 19 19 19 18 18 18 18 18 18 18 18 18 18 17 17 17 17 17 17 17 17 17 17 17 18 18 17 17 17 17 17 17 17 17 17 16 16 16 16
19 20 20 20 19 19 19 18 18 18 18 18 18 18 18 18 17 18 17 17 17 17 17 17 17 17 17 17 17 17 18 18 18 17 17 17 17 17 17 16 16 16 16
19 20 20 20 19 19 19 19 18 18 18 18 18 18 18 18 17 17 17 17 17 17 17 17 17 17 17 17 17 18 18 18 17 18 17 17 17 17 17 17 16 16 16
19 19 19 19 19 19 18 18 18 18 18 18 18 18 18 18 17 17 17 17 17 17 17 17 17 17 17 17 17 18 19 19 19 18 18 17 17 17 17 17 17 16 16
19 19 19 19 19 19 18 18 18 18 18 18 18 18 18 18 17 17 17 17 17 17 17 17 17 17 17 17 17 17 18 18 18 19 18 18 17 17 17 17 17 17 16
19 19 19 19 19 18 18 18 18 18 18 18 18 18 17 17 17 17 17 17 17 17 17 17 17 17 17 17 18 17 17 17 18 18 19 19 18 18 17 17 17 17 17
19 19 18 18 19 18 18 18 18 18 18 18 18 17 17 17 17 17 17 17 17 17 17 17 17 17 17 17 17 17 17 18 18 18 19 18 19 19 18 18 17 17 17
Wind_Speed
14 17 17 15 15 16 17 17 17 17 17 16 16 15 15 14 14 14 13 13 13 14 14 14 14 14 14 15 15 15 15 16 16 17 17 17 17 17 17 16 16 18 18
18 20 18 16 16 16 17 17 17 17 17 16 15 15 14 14 13 13 13 13 13 13 14 14 14 14 15 15 16 16 16 16 16 17 17 17 17 16 14 13 15 17 17
19 21 19 17 16 16 16 17 16 16 16 15 15 14 14 13 13 13 13 13 13 14 14 14 15 14 15 15 15 15 15 15 14 14 13 15 16 15 15 16 18 17 17
20 20 19 19 17 16 16 16 16 15 15 15 14 14 13 13 13 13 13 13 14 14 14 14 14 14 15 15 15 15 15 14 11 9 10 14 15 15 15 16 16 16 16
18 19 20 19 18 17 16 16 16 15 15 14 14 13 13 13 13 13 13 13 14 14 14 14 14 14 14 14 14 14 14 12 7 6 12 13 14 15 15 15 15 15 15
18 18 21 19 18 17 16 16 15 15 14 14 13 13 12 13 13 12 13 13 13 14 14 14 14 13 13 13 13 13 12 9 7 11 11 12 14 14 14 14 14 14 14
18 18 21 18 18 17 16 15 15 14 14 14 13 12 12 12 12 12 12 13 13 13 13 13 13 12 12 12 12 12 10 4 7 10 10 12 14 14 13 14 14 13 13
17 17 20 18 17 16 16 15 14 14 13 13 13 12 12 12 12 12 12 13 13 13 13 12 12 11 11 11 12 11 7 4 9 9 10 12 13 12 12 13 13 12 12
16 16 18 18 17 16 15 14 14 13 13 13 12 12 12 12 12 12 12 12 12 12 11 11 10 10 10 10 11 9 6 3 5 8 9 11 12 11 12 12 12 12 12
15 15 15 16 16 16 15 14 13 13 13 12 12 12 12 12 12 11 12 11 11 11 10 10 10 9 9 10 10 9 7 6 6 8 8 11 11 10 10 11 11 11 11
14 14 14 15 15 14 14 15 14 13 12 13 12 12 12 11 12 11 11 11 10 10 10 9 9 9 9 10 9 8 8 4 5 6 7 13 10 10 9 9 9 9 10
17 16 14 14 13 13 12 13 12 12 13 11 11 12 9 7 7 9 13 10 10 10 9 8 8 9 8 8 9 9 5 4 5 6 9 12 9 9 9 8 8 9 9
17 15 15 13 13 12 10 11 9 9 10 10 10 10 8 8 8 8 9 10 10 10 9 10 9 6 5 4 4 5 3 3 3 5 10 11 8 8 8 8 8 8 8
16 16 14 14 12 11 10 9 8 8 8 8 10 10 9 6 6 6 6 8 8 7 6 7 5 5 3 3 3 3 3 2 3 4 9 10 8 8 8 8 8 8 8
15 15 14 13 12 11 9 7 8 8 8 9 9 9 8 7 6 6 5 5 6 6 7 5 5 5 4 4 3 3 3 2 3 3 7 10 8 8 8 9 8 8 8
16 15 14 13 12 11 9 8 7 8 7 8 9 10 9 7 6 6 6 6 6 6 6 5 5 5 4 3 3 3 3 3 3 3 5 10 10 9 9 9 9 8 8
16 16 15 14 13 12 11 10 9 8 9 8 8 9 10 8 7 7 6 6 6 6 5 5 5 5 5 5 4 4 3 3 3 4 4 5 9 11 10 9 9 9 9
15 15 15 14 14 13 11 10 8 9 10 9 9 9 10 9 9 7 6 6 6 6 6 5 5 5 4 4 4 3 3 3 4 5 5 5 6 8 12 12 10 10 9
15 15 15 15 15 14 13 11 10 9 9 9 10 10 10 10 10 9 7 6 7 6 6 6 6 5 5 4 4 4 4 4 4 5 5 6 6 5 7 13 12 11 10
14 14 14 15 14 13 11 10 9 9 9 9 10 10 10 10 11 10 8 8 8 6 6 5 4 4 4 4 5 3 4 4 4 4 5 6 6 7 7 7 10 12 13
14 14 14 15 14 12 11 11 11 10 10 9 10 11 12 11 11 10 8 8 8 7 7 7 6 7 6 4 4 4 4 5 5 4 5 5 6 7 6 7 8 7 10
14 14 15 15 14 14 12 10 9 9 9 10 9 10 12 12 12 11 10 9 9 7 8 8 7 6 5 5 4 4 4 4 5 6 5 6 7 7 8 9 8 7 7
14 14 13 14 13 14 12 9 8 7 7 8 9 9 11 13 13 12 11 10 9 9 8 9 8 8 6 6 5 4 4 3 3 4 6 6 6 6 7 7 9 9 9
13 13 13 13 13 13 13 12 12 11 10 10 9 9 10 12 13 13 12 11 10 9 8 9 9 7 7 6 5 5 5 3 3 2 5 6 7 7 7 6 7 9 9
12 12 12 12 13 13 13 14 13 12 10 8 8 9 10 10 12 13 13 12 11 10 9 9 8 9 8 7 6 6 6 5 6 5 4 4 5 6 7 8 7 7 8
10 10 11 11 12 12 13 13 13 13 11 10 10 10 9 9 10 13 13 12 11 10 10 10 9 10 8 7 7 6 6 6 6 6 5 5 5 5 6 6 7 8 8
Wind_Direction
151 141 140 142 137 134 134 134 133 133 131 130 128 126 123 120 116 113 112 111 110 107 107 109 108 106 104 103 102 101 101 101 103 104 104 105 106 107 110 116 117 106 107
146 141 142 142 140 136 135 133 133 132 132 132 130 128 125 122 119 116 115 113 113 111 109 109 109 106 105 104 103 103 103 103 105 108 111 108 105 106 105 102 95 107 111
144 141 147 143 140 137 135 134 133 133 133 133 131 129 127 124 121 119 117 115 113 112 111 110 108 107 106 106 106 105 105 105 109 119 128 113 109 106 103 101 103 111 111
144 146 149 143 142 140 138 136 135 135 135 134 133 131 129 126 123 121 119 116 114 113 112 112 112 111 108 107 107 107 107 108 117 146 118 108 110 107 107 108 109 111 112
144 144 142 148 146 144 142 140 139 138 136 135 133 132 131 128 125 121 119 118 117 115 114 114 114 113 111 110 110 110 110 115 139 126 99 104 106 110 111 111 112 113 113
147 148 145 152 149 148 146 145 143 141 139 137 136 134 132 129 126 123 121 120 118 117 115 115 115 114 115 114 113 113 117 140 167 104 107 109 110 114 113 113 113 113 114
151 148 147 154 152 151 150 148 146 144 141 139 137 136 133 131 130 128 125 123 120 119 117 118 118 117 118 118 118 118 124 174 113 107 109 106 109 117 117 116 115 114 115
153 150 146 154 155 154 154 152 150 148 144 141 139 138 135 131 129 128 127 126 123 122 121 122 122 120 119 121 122 122 135 211 120 113 107 106 113 122 121 121 121 120 117
156 151 152 159 159 158 157 156 154 151 147 144 142 140 137 132 130 129 128 128 127 127 127 127 125 124 123 124 126 127 134 272 120 116 115 112 122 127 127 127 127 125 123
161 159 159 164 161 164 162 160 157 155 151 147 146 144 140 136 134 137 141 130 132 133 133 130 127 126 129 131 133 137 156 218 128 126 118 119 131 133 133 133 133 132 130
167 166 167 164 165 169 164 157 163 160 157 155 155 151 160 159 150 157 132 132 138 138 137 134 131 132 140 141 142 157 185 178 128 118 110 119 141 143 141 140 139 139 137
174 174 172 171 167 172 165 161 172 173 166 176 161 165 170 152 150 137 125 139 144 145 145 140 142 162 185 154 155 185 186 152 142 132 118 132 151 154 151 150 147 144 145
178 178 175 174 172 176 168 170 175 175 169 174 166 170 160 157 157 151 150 153 158 166 164 154 177 180 167 135 155 168 162 154 143 129 126 145 162 166 160 161 160 157 155
182 183 179 175 177 181 177 174 177 177 174 174 168 176 167 171 167 159 163 161 168 169 165 172 175 164 158 153 163 151 169 183 147 119 128 151 170 176 172 170 173 174 171
184 185 182 178 178 181 182 187 185 184 179 174 172 178 179 176 176 165 166 169 175 163 172 184 180 169 180 181 185 174 184 161 153 152 137 159 176 186 184 183 186 188 184
186 186 182 182 182 184 186 192 190 190 184 180 181 178 187 187 176 176 178 180 181 184 182 188 184 187 200 186 196 190 203 184 159 189 164 164 181 191 195 194 194 195 193
187 185 184 184 186 190 194 198 198 195 187 189 183 181 190 195 183 191 187 189 187 186 180 196 194 200 202 199 199 202 204 208 177 194 193 177 179 187 196 201 202 202 202
186 185 186 188 187 192 199 203 203 200 192 191 188 187 193 198 194 201 201 197 186 194 192 191 202 206 205 212 204 213 202 199 204 202 196 197 200 186 186 194 204 206 208
187 186 186 191 190 193 198 201 205 201 198 196 193 194 191 198 200 207 210 196 197 203 203 210 190 213 209 217 212 207 215 207 207 209 204 205 199 207 191 176 195 207 213
190 190 190 192 193 191 196 200 204 203 201 202 201 198 194 198 204 210 210 200 206 203 205 215 189 209 225 221 235 203 222 217 217 207 215 208 205 208 209 189 192 203 208
189 190 193 194 192 190 193 196 199 201 201 203 205 200 198 203 205 211 216 200 210 206 208 206 205 201 215 210 222 224 219 221 224 218 222 221 213 213 215 207 216 210 197
191 192 194 194 194 197 197 197 199 198 202 204 206 201 201 202 206 209 216 210 208 207 209 211 212 220 210 199 219 226 226 208 215 220 214 217 221 211 212 211 211 215 232
194 196 197 197 197 201 198 193 193 194 202 205 207 208 208 208 210 216 211 215 213 214 208 211 207 213 215 208 219 235 242 231 199 196 215 218 215 217 221 212 214 215 222
197 195 198 196 197 198 195 195 196 199 203 209 208 207 208 212 215 214 214 216 218 218 211 212 209 215 219 218 209 232 262 310 268 221 204 199 206 218 229 229 221 212 218
195 194 195 195 198 197 197 197 199 206 211 211 211 210 212 212 216 217 216 215 215 220 216 219 210 218 217 225 220 214 224 230 244 259 244 219 208 214 215 223 229 224 219
191 191 191 193 197 198 199 203 206 210 210 209 209 211 212 212 215 216 216 213 215 219 214 214 215 216 225 229 233 226 222 227 231 237 246 239 232 225 217 221 226 225 225
Height
1522 1523 1524 1527 1529 1532 1534 1536 1537 1539 1540 1541 1542 1544 1545 1546 1547 1548 1549 1550 1551 1552 1553 1554 1554 1555 1555 1556 1557 1557 1558 1558 1559 1560 1560 1561 1562 1563 1564 1565 1566 1567 1567
1521 1523 1525 1528 1531 1533 1535 1537 1539 1541 1542 1543 1545 1546 1547 1548 1549 1550 1551 1552 1553 1554 1555 1556 1557 1557 1558 1558 1559 1560 1560 1561 1562 1562 1563 1564 1565 1566 1567 1568 1569 1570 1570
1522 1524 1526 1529 1532 1535 1537 1539 1541 1542 1544 1545 1547 1548 1549 1550 1551 1552 1553 1554 1555 1556 1557 1558 1559 1560 1560 1561 1561 1562 1563 1564 1564 1565 1567 1568 1568 1568 1569 1570 1571 1572 1573
1523 1526 1528 1530 1534 1536 1538 1541 1543 1544 1546 1547 1549 1550 1551 1552 1553 1555 1555 1556 1557 1558 1559 1560 1561 1562 1562 1563 1564 1565 1565 1566 1567 1569 1571 1572 1571 1571 1572 1573 1574 1575 1576
1525 1528 1529 1532 1535 1538 1540 1542 1544 1546 1547 1549 1550 1552 1553 1554 1555 1557 1558 1559 1560 1561 1561 1562 1563 1564 1565 1566 1566 1567 1568 1569 1570 1572 1574 1574 1574 1574 1575 1576 1576 1577 1578
1526 1529 1530 1533 1536 1539 1541 1543 1545 1547 1549 1551 1552 1554 1555 1556 1557 1558 1559 1561 1562 1563 1564 1564 1565 1566 1567 1568 1569 1570 1570 1572 1574 1576 1576 1576 1576 1576 1577 1578 1579 1580 1580
1528 1531 1532 1534 1537 1540 1542 1544 1547 1549 1550 1552 1554 1555 1556 1558 1559 1560 1561 1562 1564 1565 1566 1567 1567 1568 1570 1571 1571 1572 1573 1573 1578 1578 1578 1579 1578 1578 1579 1580 1581 1582 1583
1530 1533 1533 1536 1538 1541 1544 1546 1548 1550 1552 1553 1555 1557 1558 1559 1560 1562 1563 1564 1565 1567 1568 1569 1570 1571 1572 1573 1573 1574 1575 1576 1579 1580 1580 1580 1579 1580 1581 1582 1583 1584 1584
1532 1534 1535 1537 1539 1542 1544 1547 1549 1551 1553 1554 1556 1558 1559 1560 1562 1563 1564 1566 1567 1568 1569 1571 1572 1573 1574 1575 1575 1576 1577 1578 1582 1582 1582 1581 1581 1582 1583 1583 1584 1585 1586
1532 1535 1536 1539 1541 1543 1546 1548 1550 1552 1554 1555 1557 1559 1560 1561 1563 1564 1566 1567 1568 1570 1571 1572 1573 1574 1576 1576 1577 1578 1579 1580 1584 1584 1584 1583 1583 1583 1584 1585 1586 1587 1587
1532 1535 1538 1540 1542 1545 1548 1548 1550 1553 1554 1556 1558 1559 1561 1564 1565 1566 1567 1568 1569 1571 1572 1574 1575 1576 1577 1578 1579 1579 1580 1583 1585 1585 1585 1583 1584 1585 1585 1586 1587 1588 1589
1530 1534 1537 1540 1542 1546 1548 1549 1552 1554 1555 1558 1560 1561 1563 1565 1566 1568 1567 1569 1570 1572 1573 1575 1576 1577 1579 1581 1580 1581 1583 1585 1585 1586 1585 1584 1585 1586 1586 1587 1588 1589 1590
1529 1533 1536 1539 1541 1545 1547 1549 1552 1554 1555 1558 1559 1561 1563 1565 1567 1568 1569 1570 1571 1573 1575 1576 1578 1580 1581 1582 1583 1583 1584 1586 1586 1587 1585 1585 1585 1586 1587 1588 1589 1589 1590
1529 1531 1535 1537 1540 1543 1546 1549 1551 1554 1555 1558 1559 1561 1563 1565 1567 1569 1569 1571 1573 1574 1575 1578 1579 1580 1581 1582 1583 1584 1585 1586 1587 1587 1585 1585 1586 1586 1587 1588 1589 1590 1590
1527 1530 1533 1535 1538 1541 1544 1547 1550 1553 1555 1557 1558 1560 1562 1565 1566 1568 1569 1571 1573 1574 1576 1577 1579 1580 1581 1582 1583 1584 1585 1585 1586 1587 1586 1585 1586 1586 1587 1588 1589 1590 1590
1524 1528 1531 1533 1536 1539 1542 1545 1548 1551 1553 1556 1557 1559 1561 1564 1566 1567 1568 1570 1572 1574 1576 1577 1578 1579 1581 1582 1583 1584 1585 1585 1585 1586 1586 1585 1585 1586 1587 1588 1588 1589 1590
1522 1525 1528 1531 1534 1537 1540 1543 1547 1549 1552 1554 1556 1557 1559 1562 1564 1566 1569 1570 1572 1573 1574 1576 1577 1579 1580 1581 1582 1583 1584 1584 1585 1585 1586 1586 1586 1586 1586 1587 1588 1589 1589
1519 1522 1525 1528 1531 1534 1538 1541 1545 1548 1550 1552 1554 1556 1557 1560 1562 1565 1567 1569 1570 1572 1573 1575 1577 1578 1580 1581 1581 1582 1583 1583 1583 1584 1585 1585 1586 1587 1586 1586 1587 1588 1588
1517 1519 1522 1525 1528 1532 1535 1539 1542 1544 1547 1549 1551 1554 1556 1558 1560 1563 1566 1568 1569 1571 1573 1575 1576 1577 1578 1579 1580 1581 1582 1582 1582 1583 1584 1584 1585 1585 1586 1585 1586 1586 1587
1514 1517 1519 1522 1525 1528 1532 1535 1538 1541 1543 1546 1549 1551 1553 1556 1558 1561 1564 1565 1567 1569 1570 1573 1574 1575 1576 1578 1579 1580 1580 1581 1582 1582 1583 1583 1584 1584 1585 1585 1585 1585 1585
1511 1513 1515 1518 1521 1524 1528 1531 1534 1537 1540 1543 1545 1548 1550 1553 1556 1559 1562 1563 1565 1567 1569 1571 1572 1574 1575 1576 1578 1578 1579 1579 1580 1580 1581 1582 1582 1583 1583 1584 1584 1585 1584
1507 1509 1511 1514 1517 1520 1523 1526 1530 1533 1537 1539 1542 1544 1547 1549 1552 1556 1558 1561 1563 1564 1566 1568 1570 1572 1573 1574 1576 1577 1577 1578 1577 1578 1579 1579 1580 1581 1581 1582 1582 1582 1583
1504 1506 1508 1511 1514 1517 1520 1523 1526 1530 1533 1536 1538 1541 1543 1546 1549 1552 1555 1558 1560 1562 1564 1565 1567 1569 1571 1572 1574 1575 1576 1575 1575 1576 1576 1577 1578 1578 1579 1580 1580 1580 1580
1501 1503 1505 1508 1510 1513 1516 1519 1521 1524 1527 1530 1533 1537 1540 1542 1546 1549 1552 1554 1556 1559 1561 1563 1565 1567 1568 1570 1571 1572 1574 1574 1574 1574 1575 1575 1575 1576 1577 1578 1578 1578 1578
1498 1500 1502 1504 1507 1509 1512 1514 1517 1520 1524 1527 1530 1533 1535 1538 1542 1545 1548 1550 1553 1555 1558 1560 1561 1563 1565 1567 1569 1570 1571 1572 1573 1573 1573 1574 1574 1574 1574 1575 1576 1576 1576
1496 1498 1499 1501 1503 1506 1508 1511 1513 1516 1519 1522 1525 1528 1531 1534 1538 1541 1544 1546 1549 1551 1553 1556 1558 1560 1562 1564 1566 1567 1569 1570 1571 1571 1571 1571 1572 1572 1572 1572 1573 1574 1574